User: anonymous   Login
Location: Kampung Segan
(3.1399°N, 113.1002°E)
Time: 17:00:34
(UTC+00:00)
Language:

ERS-1 - Orbit

View from above orbital plane
View from above orbital plane
View from above satellite
View from above satellite

Ground track
Ground track

The orbit data is extracted from the following two-line orbital elements,

1 21574U 91050A   24283.82867205  .00001617  00000-0  53823-3 0  9990
2 21574  98.7869 278.1743 0031189 293.0476  66.7423 14.38784972741534
Epoch (UTC): 09 October 2024 19:53:17
Eccentricity: 0.0031189
inclination: 98.7869°
perigee height: 740 km
apogee height: 785 km
right ascension of ascending node: 278.1743°
argument of perigee: 293.0476°
revolutions per day: 14.38784972
mean anomaly at epoch: 66.7423°
orbit number at epoch: 74153

The dashed part of the orbit path shows where the satellite is in the earth's shadow,  

DLR